Location: Nashville
(36.1660°N, 86.7840°W)
Time: 03:31:02
(UTC-05:00)

Tiros 1 - Pass Details

Date: 28 January 2022
Orbit: 630 x 663 km, 48.4° (Epoch: 29 May)

Event Time Altitude Azimuth Distance (km) Brightness Sun altitude
Rises 19:48:21 0° 214° (SW) 2,970 11.0 -32.1°
Reaches altitude 10° 19:50:46 10° 207° (SSW) 2,065 10.0 -32.6°
Enters shadow 19:51:07 12° 206° (SSW) 1,941 9.8 -32.6°
